x

Gulf Of Maine - 78 Nm East Of Portsmouth, Nh (44005) Wave Buoy

7:50 - Thu 5th May 2016 All times are EDT. -4 hours from GMT.

  • Sig Wave height 8.9ft
  • Peak Period 7s
  • Average Period 6s
  • Wind
    25mph, 29mph gusts
  • Sea Temp 44°f
  • Aire Temp 43°f
  • Sea Pressure 1007mb
  • Gulf Of Maine - 78 Nm East Of Portsmouth, Nh
  • Gulf Of Maine - 78 Nm East Of Portsmouth, Nh

More Historic Weather Station data

Upgrade to MSW Pro to gain access to the past 30 days of data for over 8000 Wavebouys and Weather Stations around the globe.

Join Pro

Comparision Forecast

View Surf forecast
   
jue 05/05 7:50 9ft 7s 6s 25 29 mph 1007mb 44f 43f
6:50 7ft 7s 5s 25 31 mph 1006.5mb 44f 43f
5:50 8ft 7s 6s 20 25 mph 1006.8mb 44f 44f
4:50 7.5ft 7s 6s 20 25 mph 1006.5mb 44f 44f
3:50 7ft 6s 6s 20 25 mph 1006.1mb 45f 44f
2:50 6.5ft 7s 5s 20 25 mph 1006.7mb 45f 44f
1:50 6ft 6s 5s 22 27 mph 1007.1mb 45f 44f
12:50 5ft 6s 5s 22 25 mph 1008mb 45f 44f
mié 05/04 11:50 5ft 6s 5s 18 22 mph 1009mb 45f 43f
10:50 5ft 6s 5s 18 22 mph 1009.5mb 45f 43f
9:50 5ft 6s 5s 22 27 mph 1009.7mb 45f 43f
8:50 5ft 6s 5s 16 20 mph 1010.3mb 45f 43f
7:50 5.5ft 6s 5s 16 20 mph 1010.9mb 45f 43f
6:50 5ft 5s 5s 22 27 mph 1009.9mb 45f 43f
5:50 5.5ft 6s 5s 22 27 mph 1010mb 45f 43f
4:50 5.5ft 5s 5s 20 25 mph 1011.2mb 45f 43f
3:50 5.5ft 8s 5s 22 27 mph 1010.9mb 45f 43f
2:50 5ft 8s 5s 18 22 mph 1011.7mb 45f 42f
1:50 4.5ft 8s 5s 18 20 mph 1012.2mb 45f 42f
12:50 4ft 9s 5s 16 20 mph 1012.6mb 45f 42f
11:50 3.5ft 8s 4s 20 25 mph 1012.6mb 45f 42f
10:50 2.5ft 9s 5s 20 22 mph 1012.1mb 45f 44f
9:50 2.5ft 9s 5s 11 16 mph 1012.4mb 45f 44f
8:50 2.5ft 10s 5s 16 18 mph 1011.7mb 45f 44f
7:50 2.5ft 9s 6s 11 13 mph 1012.2mb 45f 45f
6:50 2.5ft 7s 7s 7 9 mph 1012mb 45f 45f
5:50 3ft 8s 7s 7 9 mph 1011.7mb 45f 45f
4:50 3ft 8s 7s 7 9 mph 1011.1mb 45f 45f
3:50 3.5ft 7s 7s 7
mph
1011.1mb 45f 45f
2:50 3ft 7s 7s 7 9 mph 1011.2mb 45f 45f
1:50 3ft 8s 7s 7
mph
1011.4mb 45f 45f
12:50 2.5ft 8s 7s 9
mph
1011.4mb 45f 45f
mar 05/03 11:50 3ft 8s 7s 4 7 mph 1011.6mb 45f 45f
10:50 2.5ft 8s 7s 2 4 mph 1011.5mb 45f 44f
9:50 2.5ft 8s 7s 4
mph
1011.7mb 45f 44f
8:50 2.5ft 8s 7s 2
mph
1011.5mb 45f 44f
7:50 3ft 8s 6s 2 4 mph 1010.9mb 45f 44f
6:50 3ft 8s 6s 4 7 mph 1010.4mb 45f 44f
5:50 3.5ft 7s 6s 2
mph
1011mb 45f 44f
4:50 3.5ft 7s 6s 2 4 mph 1011.1mb 45f 44f
3:50 3.5ft 9s 6s 7 9 mph 1011.2mb 45f 44f
2:50 4ft 8s 6s 7
mph
1011.3mb 45f 44f
1:50 4.5ft 7s 6s 4
mph
1012.1mb 45f 43f
12:50 4ft 8s 6s 7
mph
1012.6mb 45f 43f
11:50 3.5ft 8s 6s 9 11 mph 1012.4mb 45f 43f
10:50 4ft 8s 6s 7 9 mph 1012.7mb 44f 43f
9:50 4ft 6s 5s 7 9 mph 1012.7mb 44f 43f
8:50 4ft 8s 5s 7 9 mph 1013mb 44f 43f
7:50 4ft 6s 5s 7 9 mph 1013mb 44f 43f
6:50 4.5ft 6s 5s 7 9 mph 1012.9mb 44f 43f
5:50 4.5ft 6s 5s 9 13 mph 1012.4mb 44f 43f
4:50 4.5ft 8s 5s 11 13 mph 1011.8mb 44f 43f
3:50 4.5ft 7s 5s 13 16 mph 1011.4mb 44f 44f
2:50 5ft 7s 5s 16 18 mph 1011.9mb 44f 44f
1:50 5.5ft 7s 5s 18 22 mph 1011.1mb 44f 44f
12:50 5ft 8s 5s 20 25 mph 1010.6mb 44f 44f
lun 05/02 11:50 5.5ft 7s 5s 16 20 mph 1011.5mb 44f 44f
10:50 5ft 7s 6s 16 18 mph 1011mb 44f 44f
9:50 5.5ft 9s 6s 16 20 mph 1009.9mb 44f 44f
8:50 5ft 7s 6s 16 18 mph 1009.6mb 44f 44f
7:50 5ft 7s 5s 11 13 mph 1010.2mb 44f 45f
6:50 6ft 7s 5s 7
mph
1010.6mb 45f 45f
5:50 6ft 7s 5s 20 25 mph 1008.5mb 45f 45f
4:50 6ft 6s 5s 18 22 mph 1010.3mb 45f 45f
3:50 6ft 7s 5s 18 20 mph 1012mb 45f 45f
2:50 6.5ft 6s 6s 18 20 mph 1013.3mb 45f 45f
1:50 6ft 6s 5s 18 22 mph 1014.2mb 45f 44f
12:50 6ft 8s 5s 20 25 mph 1015mb 45f 44f
11:50 5ft 8s 5s 20 25 mph 1016mb 45f 45f
10:50 4.5ft 8s 5s 18 22 mph 1017.2mb 45f 45f
9:50 4.5ft 9s 5s 18 20 mph 1017.5mb 45f 45f
8:50 4ft 8s 5s 18 20 mph 1017.9mb 45f 44f
7:50 4ft 9s 5s 18 20 mph 1018.3mb 45f 44f
6:50 4ft 10s 5s 20 22 mph 1018mb 45f 44f
5:50 3.5ft 8s 5s 16 18 mph 1018.8mb 45f 44f
4:50 3.5ft 8s 5s 13 16 mph 1019.1mb 45f 44f
3:50 4ft 9s 6s 13
mph
1019.5mb 45f 45f
2:50 4.5ft 8s 6s 9 11 mph 1019.9mb 45f 44f
1:50 4.5ft 10s 7s 9 11 mph 1020.7mb 45f 45f
12:50 5ft 10s 8s 11 13 mph 1020.8mb 45f 45f
dom 05/01 11:50 5ft 10s 8s 11 13 mph 1021.6mb 45f 45f
10:50 5ft 10s 8s 7 9 mph 1022.2mb 45f 45f
9:50 5ft 9s 8s 9
mph
1022.5mb 45f 45f
8:50 5ft 9s 8s 9
mph
1022.8mb 46f 45f
7:50 5ft 10s 8s 7
mph
1023mb 46f 45f
6:50 4.5ft 10s 7s 7
mph
1023mb 46f 45f
5:50 4ft 10s 7s 7
mph
1023.4mb 46f 45f
4:50 4ft 9s 7s 4 7 mph 1023.9mb 46f 45f
3:50 4ft 9s 7s 7
mph
1024.6mb 46f 45f
2:50 5ft 10s 7s 9
mph
1024.9mb 46f 45f
1:50 5ft 10s 7s 9 11 mph 1025.2mb 46f 46f